Weather in Kumylzhenskaya

Russia / Volgograd Oblast     49°52′53″N   42°35′25″E
temp.,
°C
wind,
m/s
gust,
m/s
humid.,
%
clouds,
%
prec.,
mm/h
press.,
hPa
HPBL,
m
28 february, sun
sun2800:00−2nnw6118086 0.1 1011645
03:00−4nnw587955 0.1 1013580
06:00−6nnw478578 0.0 1014500
09:00−5nnw468075 0.0 1016508
12:00−2nw457387 0.0 1016640
15:00−1nw477488 0.0 1015771
18:00−1nw2688100 0.0 1016386
21:00−1n1291100 0.0 1018128
1 march, mon
mon100:00−2n239499 0.0 1019180
03:00−4n249299 0.0 1020144
06:00−4nne348499 0.0 1022494
09:00−4nne228399 0.1 1024382
12:00−3nne337496 0.0 1025615
15:00−2nnw336794 0.0 1026654
18:00−3n237727 0.0 1026112
21:00−4nnw008113 0.0 102721
2 march, tue
tue200:00−4wsw23830 0.0 102674
03:00−4wsw488730 0.0 1025288
06:00−3wsw51287100 0.0 1023456
09:00−1wsw71377100 0.0 1021675
12:00+1wsw91473100 0.0 1018745
15:00+1wsw81478100 0.0 1015816
18:000w81497100 0.3 1013677
21:00+1w61297100 1.1 1011609
3 march, wed
wed300:00+1wnw5998100 0.5 1009386
03:000wnw4898100 0.7 1008338
06:00−1n51095100 0.6 1009458
09:00−1nnw7108383 0.6 1012702
12:00+1nnw797072 0.0 10131088
15:00+1nw7106786 0.1 10151271
18:000nw51077100 0.1 1016652
21:00−2nnw6118291 0.1 1019724
4 march, thu
thu400:00−3nw597838 0.0 1020795
03:00−3w487834 0.0 1020391
06:00−3wsw510820 0.0 1020292
09:00−1wsw712750 0.0 1019604
12:00+3wsw812610 0.0 10171093
15:00+4wsw914534 0.0 10141247
18:00+2wsw716650 0.0 1013642
21:00+2wsw717710 0.0 1013645